Location: Ulm
(48.3980°N, 9.9777°E)
Time: 23:51:00
(UTC+01:00)

Envisat - Visible Passes

Search period start: 16 January 2018 00:00
Search period end: 26 January 2018 00:00
Orbit: 764 x 766 km, 98.2° (Epoch: 16 January)

Date Brightness Start Highest point End Pass type
(mag) Time Alt. Az. Time Alt. Az. Time Alt. Az.
16 Jan 3.9 18:57:10 29° NE 18:57:10 29° NE 19:00:29 10° N visible
16 Jan 5.0 20:37:22 24° NW 20:37:22 24° NW 20:39:39 10° NNW visible
17 Jan 4.4 18:19:48 18° NE 18:19:48 18° NE 18:23:00 10° NNE visible
17 Jan 4.0 19:59:59 39° NNW 19:59:59 39° NNW 20:03:10 10° NNW visible
18 Jan 3.5 19:22:37 43° NNE 19:22:37 43° NNE 19:26:20 10° N visible
18 Jan 5.4 21:02:48 18° WNW 21:02:48 18° WNW 21:04:45 10° NW visible
19 Jan 6.0 07:23:09 10° NE 07:25:43 14° E 07:28:15 10° ESE visible
19 Jan 3.9 18:45:13 28° ENE 18:45:13 28° ENE 18:49:11 10° N visible
19 Jan 4.4 20:25:25 34° NW 20:25:25 34° NW 20:28:38 10° NNW visible
20 Jan 4.5 18:07:49 15° ENE 18:08:38 15° NE 18:11:28 10° NNE visible
20 Jan 3.3 19:48:01 57° N 19:48:01 57° N 19:52:02 10° NNW visible
20 Jan 5.9 21:28:12 12° WNW 21:28:12 12° WNW 21:29:13 10° NW visible
21 Jan 3.3 19:10:36 43° ENE 19:10:36 43° ENE 19:15:07 10° N visible
21 Jan 5.0 20:50:48 25° WNW 20:50:48 25° WNW 20:53:52 10° NW visible
22 Jan 6.3 07:13:08 10° ENE 07:14:25 11° E 07:15:41 10° E visible
22 Jan 4.0 18:33:12 23° ENE 18:33:53 23° ENE 18:37:51 10° N visible
22 Jan 3.7 20:13:23 51° WNW 20:13:23 51° WNW 20:17:34 10° NNW visible
23 Jan 4.7 17:55:47 11° ENE 17:57:40 13° NE 17:59:47 10° NNE visible
23 Jan 2.8 19:35:58 71° ENE 19:35:58 71° ENE 19:40:53 10° N visible
23 Jan 5.5 21:16:09 17° WNW 21:16:09 17° WNW 21:18:41 10° NW visible
24 Jan 3.5 18:58:32 34° E 18:59:15 36° ENE 19:03:52 10° N visible
24 Jan 4.5 20:38:43 34° W 20:38:43 34° W 20:42:55 10° NNW visible
25 Jan 4.3 18:21:06 16° E 18:22:53 20° ENE 18:26:27 10° NNE visible
25 Jan 3.1 20:01:17 71° WSW 20:01:23 71° WSW 20:06:29 10° NNW visible
